IRIDIUM 33 DEB

Satellite information

Favourite Embed

Satellite Type and Status

DEBRISDECAYED

Key statistics

Satellite IRIDIUM 33 DEB at a glance.

Uptime

10302

Days in orbit

Revolutions

≈ 15.9

Per day

Orbit

LEO

Low Earth Orbit

Inclination

86.3

Latest

Satellite identification and parameters

Extended collection of information and parameters for IRIDIUM 33 DEB.

Object identification

Identified? True

Debris? True

Object name: IRIDIUM 33 DEB

International designator: 1997-051AC

Object number (NORAD): 33859

Object ID (CCSDS): 33859

Country: UNITED STATES OF AMERICA (US)

Current information (Y/N): Y

RCS size: SMALL

Orbital parameters

Decay date: Nov. 28, 2025

Period: 90.58 minutes

Inclination: 86.2997 deg

SMA: 6681.111 km

Apoapsis: 305.182 km

Periapsis: 300.769 km

RAAN: 5.4699 deg

Eccentricy: 0.00033029

Argument of periapsis: 318.3882 deg

Mean anomaly: 41.7147 deg

Mean motion: 15.89753383 rev/day

Mean motion (dot): 0.03536618 rev/day2

B* drag term: 0.014478938 1/REarth

Two-line elements (TLE)

Creation date: Nov. 28, 2025, 5:28 a.m.

Reference frame: TEME

Reference center: EARTH

Epoch: Nov. 27, 2025, 9:22 a.m. UTC

TLE line 0: 0 IRIDIUM 33 DEB

TLE line 1: 1 33859U 97051AC 25331.39082143 .03536618 14480-1 14479-1 0 9990

TLE line 2: 2 33859 86.2997 5.4699 0003303 318.3882 41.7147 15.89753383883359

Live tracking on map

Satellite IRIDIUM 33 DEB has decayed and is no longer in orbit. No tracking available.

In-orbit conjunctions

Satellite IRIDIUM 33 DEB has decayed and is no longer in orbit. No conjunctions available.

Associated space launch

Iridium provides global mobile telecommunications services using a constellation of 66 low earth orbit satellites in a 86.4° inclined orbit. Although 77 satellites were originally envisioned for the system and spawned the name based on the 77th element in the periodic table, the system has been scaled back. Motorola's Satellite Communications Group designed and manufactured the Iridium satellites with Lockheed Martin providing the LM-700A spacecraft buses.

IRIDIUM 33 DEB was lifted into orbit during the mission ‘Proton-K/17S40 | Iridium 27 to 33’, on board a Proton-K/17S40 space rocket.

The launch took place on Sept. 14, 1997, 1:36 a.m. from 81/23 (81L).

For more information about the launch, click the button.

Launch to space Proton-K/17S40 | Iridium 27 to 33
Proton-K/17S40 | Iridium 27 to 33

Agency: N/A

Status: Launch Successful

Launch date: Sept. 14, 1997, 1:36 a.m. UTC

Rocket: Proton-K/17S40

Launch pad: 81/23 (81L)

Location: Baikonur Cosmodrome, Republic of Kazakhstan

...

Latest news about this satellite

There are no fresh news available about this satellite. Check back as we update our databases every day.


Newsletter sign-up

Weekly statistics, charts and insights to help you stay on top of the space industry.